Retour au catalogue

HULIANWANG DIGUI-13

ActifCommunicationsLEO
NORAD 62973·PAYLOAD·🇨🇳 China

Lancé Feb 11, 2025 depuis Wenchang Space Launch Site

Loading…

Prochains Passages (prochaines 24 heures)

TLE

FraisSource: Space-Track

Époque: Sep 14, 2026, 12:57 UTC

1 62973U 25030C   26257.54015817 -.00000093  00000-0  66418-4 0  9992
2 62973  50.0019 275.3470 0000363  19.4596 340.6290 13.29326617 77747

Suivez HULIANWANG DIGUI-13 en temps réel avec AllMySat

Download on the App Store